When you browse on this site, cookies collect data to enhance your experience and personalize the content and advertising you see.
Visit our Privacy Policy to learn more. By continuing to use the site, you agree to this use of cookies and data.
  • In Hungary
  • List of Countries
  • For 7 days
  • Water Temperature
  • Weather Map
  • News
  • Weather Widgets
  • user-avatar
    Login

    Hourly Weather Hakodz

    Today, 22 October, Tuesday

    Time Temperature Precipitation Wind Pressure Humidity
    00:00 +13°C° 0 mm 1 mps 729 mmHg 78%
    01:00 +13°C° 0 mm 1 mps 729 mmHg 81%
    02:00 +13°C° 0 mm 1 mps 729 mmHg 83%
    03:00 +12°C° 0 mm 1 mps 729 mmHg 86%
    04:00 +12°C° 0 mm 1 mps 729 mmHg 86%
    05:00 +12°C° 0 mm 1 mps 729 mmHg 86%
    06:00 +12°C° 0 mm 1 mps 729 mmHg 86%
    07:00 +13°C° 0 mm 0 mps 729 mmHg 79%
    08:00 +15°C° 0 mm 0 mps 729 mmHg 72%
    09:00 +17°C° 0 mm 0 mps 730 mmHg 65%
    10:00 +20°C° 0 mm 1 mps 730 mmHg 61%
    11:00 +21°C° 0 mm 1 mps 730 mmHg 57%
    12:00 +22°C° 0 mm 1 mps 730 mmHg 53%
    13:00 +22°C° 0 mm 1 mps 730 mmHg 53%
    14:00 +21°C° 0 mm 2 mps 729 mmHg 53%
    15:00 +21°C° 0 mm 2 mps 729 mmHg 54%
    16:00 +20°C° 0 mm 1 mps 729 mmHg 62%
    17:00 +18°C° 0 mm 1 mps 729 mmHg 70%
    18:00 +15°C° 0 mm 1 mps 729 mmHg 78%
    19:00 +14°C° 0 mm 1 mps 729 mmHg 78%
    20:00 +14°C° 0 mm 1 mps 729 mmHg 79%
    21:00 +14°C° 0 mm 1 mps 729 mmHg 80%
    22:00 +13°C° 0 mm 1 mps 729 mmHg 77%
    23:00 +13°C° 0 mm 1 mps 729 mmHg 75%

    Tomorrow, 23 October, Wednesday

    Time Temperature Precipitation Wind Pressure Humidity
    00:00 +13°C° 0 mm 1 mps 728 mmHg 72%
    01:00 +13°C° 0 mm 1 mps 729 mmHg 74%
    02:00 +12°C° 0 mm 1 mps 729 mmHg 75%
    03:00 +12°C° 0 mm 1 mps 729 mmHg 77%
    04:00 +12°C° 0 mm 1 mps 729 mmHg 76%
    05:00 +12°C° 0 mm 1 mps 729 mmHg 75%
    06:00 +12°C° 0 mm 1 mps 729 mmHg 75%
    07:00 +13°C° 0 mm 1 mps 729 mmHg 70%
    08:00 +15°C° 0 mm 1 mps 729 mmHg 65%
    09:00 +15°C° 0 mm 0 mps 729 mmHg 60%
    10:00 +18°C° 0 mm 1 mps 729 mmHg 57%
    11:00 +20°C° 0 mm 1 mps 729 mmHg 53%
    12:00 +21°C° 0 mm 1 mps 729 mmHg 50%
    13:00 +21°C° 0 mm 1 mps 729 mmHg 50%
    14:00 +21°C° 0 mm 1 mps 729 mmHg 50%
    15:00 +20°C° 0 mm 2 mps 729 mmHg 50%
    16:00 +19°C° 0 mm 1 mps 728 mmHg 56%
    17:00 +18°C° 0 mm 1 mps 728 mmHg 63%
    18:00 +15°C° 0 mm 1 mps 728 mmHg 70%
    19:00 +15°C° 0 mm 1 mps 728 mmHg 69%
    20:00 +14°C° 0 mm 1 mps 728 mmHg 69%
    21:00 +14°C° 0 mm 1 mps 728 mmHg 68%
    22:00 +14°C° 0 mm 1 mps 728 mmHg 67%
    23:00 +13°C° 0 mm 1 mps 728 mmHg 66%

    Day after tomorrow, 24 October, Thursday

    Time Temperature Precipitation Wind Pressure Humidity
    00:00 +13°C° 0 mm 1 mps 728 mmHg 65%
    01:00 +13°C° 0 mm 1 mps 728 mmHg 65%
    02:00 +12°C° 0 mm 1 mps 728 mmHg 64%
    03:00 +12°C° 0 mm 1 mps 727 mmHg 64%
    04:00 +12°C° 0 mm 1 mps 728 mmHg 65%
    05:00 +12°C° 0 mm 1 mps 728 mmHg 67%
    06:00 +11°C° 0 mm 1 mps 728 mmHg 68%
    07:00 +12°C° 0 mm 0 mps 728 mmHg 63%
    08:00 +14°C° 0 mm 0 mps 728 mmHg 58%
    09:00 +16°C° 0 mm 0 mps 728 mmHg 54%
    10:00 +18°C° 0 mm 0 mps 728 mmHg 49%
    11:00 +21°C° 0 mm 1 mps 728 mmHg 45%
    12:00 +23°C° 0 mm 1 mps 728 mmHg 41%
    13:00 +23°C° 0 mm 1 mps 728 mmHg 41%
    14:00 +22°C° 0 mm 1 mps 728 mmHg 41%
    15:00 +22°C° 0 mm 1 mps 727 mmHg 42%
    16:00 +20°C° 0 mm 1 mps 727 mmHg 49%
    17:00 +18°C° 0 mm 1 mps 727 mmHg 57%
    18:00 +15°C° 0 mm 1 mps 726 mmHg 65%
    19:00 +14°C° 0 mm 1 mps 726 mmHg 66%
    20:00 +14°C° 0 mm 1 mps 727 mmHg 67%
    21:00 +14°C° 0 mm 1 mps 727 mmHg 67%
    22:00 +13°C° 0 mm 1 mps 727 mmHg 67%
    23:00 +13°C° 0 mm 1 mps 726 mmHg 67%

    25 October, Friday

    Time Temperature Precipitation Wind Pressure Humidity
    00:00 +13°C° 0 mm 1 mps 726 mmHg 67%
    01:00 +13°C° 0 mm 1 mps 726 mmHg 67%
    02:00 +13°C° 0 mm 1 mps 726 mmHg 68%
    03:00 +13°C° 0 mm 1 mps 726 mmHg 69%
    04:00 +12°C° 0 mm 1 mps 726 mmHg 69%
    05:00 +12°C° 0 mm 1 mps 726 mmHg 68%
    06:00 +12°C° 0 mm 1 mps 726 mmHg 68%
    07:00 +14°C° 0 mm 1 mps 727 mmHg 64%
    08:00 +15°C° 0 mm 0 mps 727 mmHg 59%
    09:00 +16°C° 0 mm 0 mps 727 mmHg 55%
    10:00 +18°C° 0 mm 0 mps 728 mmHg 51%
    11:00 +21°C° 0 mm 1 mps 728 mmHg 47%
    12:00 +23°C° 0 mm 1 mps 728 mmHg 43%
    13:00 +22°C° 0 mm 1 mps 728 mmHg 44%
    14:00 +21°C° 0 mm 2 mps 727 mmHg 46%
    15:00 +21°C° 0 mm 2 mps 727 mmHg 48%
    16:00 +20°C° 0 mm 1 mps 727 mmHg 56%
    17:00 +16°C° 0 mm 1 mps 727 mmHg 64%
    18:00 +13°C° 0 mm 0 mps 727 mmHg 72%
    19:00 +14°C° 0 mm 1 mps 727 mmHg 73%
    20:00 +14°C° 0 mm 1 mps 727 mmHg 74%
    21:00 +13°C° 0 mm 1 mps 727 mmHg 75%
    22:00 +13°C° 0 mm 1 mps 727 mmHg 75%
    23:00 +13°C° 0 mm 1 mps 727 mmHg 75%

    26 October, Saturday

    Time Temperature Precipitation Wind Pressure Humidity
    00:00 +13°C° 0 mm 1 mps 727 mmHg 75%
    01:00 +12°C° 0 mm 1 mps 727 mmHg 76%
    02:00 +12°C° 0 mm 1 mps 727 mmHg 77%
    03:00 +12°C° 0 mm 1 mps 727 mmHg 78%
    04:00 +12°C° 0 mm 1 mps 727 mmHg 79%
    05:00 +12°C° 0 mm 1 mps 727 mmHg 79%
    06:00 +12°C° 0 mm 1 mps 727 mmHg 80%
    07:00 +12°C° 0 mm 0 mps 727 mmHg 74%
    08:00 +14°C° 0 mm 0 mps 727 mmHg 67%
    09:00 +16°C° 0 mm 0 mps 728 mmHg 61%
    10:00 +17°C° 0 mm 0 mps 728 mmHg 57%
    11:00 +21°C° 0 mm 1 mps 728 mmHg 52%
    12:00 +22°C° 0 mm 1 mps 728 mmHg 48%
    13:00 +22°C° 0 mm 1 mps 728 mmHg 49%
    14:00 +22°C° 0 mm 1 mps 728 mmHg 50%
    15:00 +22°C° 0 mm 1 mps 727 mmHg 51%
    16:00 +19°C° 0 mm 1 mps 727 mmHg 58%
    17:00 +16°C° 0 mm 1 mps 727 mmHg 66%
    18:00 +13°C° 0 mm 0 mps 727 mmHg 73%
    19:00 +13°C° 0 mm 0 mps 727 mmHg 75%
    20:00 +13°C° 0 mm 0 mps 727 mmHg 76%
    21:00 +13°C° 0 mm 1 mps 727 mmHg 78%
    22:00 +13°C° 0 mm 1 mps 726 mmHg 79%
    23:00 +13°C° 0 mm 1 mps 726 mmHg 80%

    27 October, Sunday

    Time Temperature Precipitation Wind Pressure Humidity
    00:00 +13°C° 0 mm 1 mps 726 mmHg 81%
    01:00 +12°C° 0 mm 1 mps 726 mmHg 82%
    02:00 +12°C° 0 mm 1 mps 726 mmHg 83%
    03:00 +12°C° 0 mm 1 mps 726 mmHg 84%
    04:00 +12°C° 0 mm 1 mps 726 mmHg 84%
    05:00 +12°C° 0 mm 1 mps 726 mmHg 84%
    06:00 +11°C° 0 mm 1 mps 726 mmHg 85%
    07:00 +13°C° 0 mm 1 mps 727 mmHg 78%
    08:00 +14°C° 0 mm 0 mps 727 mmHg 72%
    09:00 +15°C° 0 mm 0 mps 727 mmHg 65%
    10:00 +19°C° 0 mm 1 mps 727 mmHg 62%
    11:00 +20°C° 0 mm 1 mps 727 mmHg 58%
    12:00 +20°C° 0 mm 2 mps 727 mmHg 54%
    13:00 +20°C° 0 mm 2 mps 727 mmHg 55%
    14:00 +20°C° 0 mm 2 mps 727 mmHg 56%
    15:00 +20°C° 0 mm 2 mps 726 mmHg 57%
    16:00 +19°C° 0 mm 1 mps 726 mmHg 66%
    17:00 +16°C° 0 mm 1 mps 726 mmHg 74%
    18:00 +14°C° 0 mm 0 mps 726 mmHg 82%
    19:00 +13°C° 0 mm 0 mps 726 mmHg 83%
    20:00 +13°C° 0 mm 0 mps 726 mmHg 83%
    21:00 +13°C° 0 mm 0 mps 727 mmHg 83%
    22:00 +13°C° 0 mm 1 mps 727 mmHg 85%
    23:00 +13°C° 0 mm 1 mps 726 mmHg 86%

    28 October, Monday

    Time Temperature Precipitation Wind Pressure Humidity
    00:00 +12°C° 0 mm 1 mps 726 mmHg 88%
    01:00 +12°C° 0 mm 1 mps 726 mmHg 89%
    02:00 +12°C° 0 mm 1 mps 726 mmHg 90%
    03:00 +12°C° 0 mm 1 mps 726 mmHg 91%
    04:00 +12°C° 0 mm 1 mps 726 mmHg 91%
    05:00 +11°C° 0 mm 1 mps 726 mmHg 91%
    06:00 +11°C° 0 mm 1 mps 726 mmHg 92%
    07:00 +13°C° 0 mm 1 mps 726 mmHg 87%
    08:00 +14°C° 0 mm 1 mps 726 mmHg 82%
    09:00 +15°C° 0 mm 1 mps 727 mmHg 77%
    10:00 +16°C° 0 mm 1 mps 727 mmHg 71%
    11:00 +19°C° 0 mm 1 mps 727 mmHg 65%
    12:00 +19°C° 0 mm 2 mps 727 mmHg 59%
    13:00 +19°C° 0 mm 2 mps 727 mmHg 59%
    14:00 +19°C° 0 mm 2 mps 727 mmHg 59%
    15:00 +19°C° 0 mm 3 mps 727 mmHg 58%
    16:00 +17°C° 0 mm 2 mps 726 mmHg 66%
    17:00 +16°C° 0 mm 2 mps 726 mmHg 74%
    18:00 +14°C° 0 mm 1 mps 726 mmHg 82%
    19:00 +14°C° 0 mm 1 mps 726 mmHg 84%
    20:00 +13°C° 0 mm 1 mps 726 mmHg 87%
    21:00 +13°C° 0 mm 1 mps 727 mmHg 89%
    22:00 +12°C° 0 mm 1 mps 726 mmHg 89%
    23:00 +12°C° 0 mm 1 mps 726 mmHg 89%
    Show more